Date String (YYYY-MM-DD hh:mm:ss) UTC,Instrument flags,Ambient pressure (hPa),Sample flow (lpm),Bypass flow (lpm),Sample temperature (°C),Ambient temperature (°C),ASC tube jacket temperature (°C),LED temperature (°C),Box temperature (°C),Sample RH (%),Span deviation,Mass concentration (μg/m³),Mass concentration (μg/m³),Mass concentration (μg/m³)
DateTimeUTC,F1_M11,P_M11,Q1_M11,Q2_M11,T1_M11,T2_M11,T3_M11,T4_M11,T5_M11,U1_M11,ZSPAN_M11,X0_M11,X2_M11,X1_M11
2022-11-20 21:00:00,,0828.0,5.01,0.00,27.0,26.0,00.0,35.8,28.9,08.7,0000.0,0010.36,0007.05,0006.88
2022-11-20 21:01:00,,0828.0,4.99,0.00,27.1,26.0,00.0,35.8,28.9,08.6,0000.0,0010.40,0007.07,0006.88
2022-11-20 21:02:00,,0828.0,5.00,0.00,27.1,26.0,00.0,35.8,28.9,08.4,0000.0,0010.28,0007.09,0006.89
2022-11-20 21:03:00,,0828.0,5.00,0.00,27.1,26.0,00.0,35.8,28.9,08.4,0000.0,0009.56,0007.08,0006.87
2022-11-20 21:04:00,,0828.0,5.00,0.00,27.1,26.0,00.0,35.9,29.0,08.5,0000.0,0009.62,0007.08,0006.86
2022-11-20 21:05:00,,0828.0,5.00,0.00,27.1,26.0,00.0,35.9,29.0,08.2,0000.0,0009.62,0007.06,0006.83
2022-11-20 21:06:00,,0828.0,5.00,0.00,27.1,26.0,00.0,35.9,29.0,08.4,0000.0,0009.58,0007.03,0006.81
2022-11-20 21:07:00,,0828.0,5.00,0.00,27.1,26.0,00.0,35.9,29.0,08.6,0000.0,0009.51,0007.01,0006.80
2022-11-20 21:08:00,,0828.0,5.00,0.00,27.1,26.0,00.0,35.9,29.0,07.9,0000.0,0009.45,0007.02,0006.79
2022-11-20 21:09:00,,0828.0,5.00,0.00,27.2,26.1,00.0,35.9,29.0,07.8,0000.0,0009.46,0007.00,0006.76
2022-11-20 21:10:00,,0827.9,5.00,0.00,27.2,26.1,00.0,35.9,29.0,08.0,0000.0,0009.50,0007.01,0006.75
2022-11-20 21:11:00,,0828.0,5.00,0.00,27.2,26.1,00.0,36.0,29.0,08.2,0000.0,0009.52,0007.02,0006.75
2022-11-20 21:12:00,,0827.9,5.00,0.00,27.2,26.1,00.0,36.0,29.1,08.2,0000.0,0009.42,0007.00,0006.75
2022-11-20 21:13:00,,0828.0,5.00,0.00,27.2,26.1,00.0,36.0,29.1,08.3,0000.0,0009.42,0007.00,0006.74
2022-11-20 21:14:00,,0828.0,5.00,0.00,27.2,26.1,00.0,36.0,29.1,08.1,0000.0,0009.46,0007.01,0006.74
2022-11-20 21:15:00,,0828.0,5.00,0.00,27.2,26.1,00.0,36.0,29.1,08.2,0000.0,0009.37,0006.99,0006.74
2022-11-20 21:16:00,,0828.0,5.02,0.00,27.3,26.1,00.0,36.0,29.1,08.1,0000.0,0009.34,0006.99,0006.75
2022-11-20 21:17:00,,0827.9,4.99,0.00,27.3,26.2,00.0,36.0,29.2,07.6,0000.0,0009.35,0006.98,0006.74
2022-11-20 21:18:00,,0827.9,4.99,0.00,27.3,26.2,00.0,36.0,29.2,07.7,0000.0,0009.36,0006.94,0006.70
2022-11-20 21:19:00,,0827.9,4.99,0.00,27.3,26.2,00.0,36.1,29.2,07.7,0000.0,0009.28,0006.90,0006.68
2022-11-20 21:20:00,,0827.9,5.01,0.00,27.3,26.2,00.0,36.1,29.2,07.6,0000.0,0009.27,0006.89,0006.67
2022-11-20 21:21:00,,0827.9,5.01,0.00,27.3,26.2,00.0,36.1,29.2,07.4,0000.0,0009.18,0006.85,0006.63
2022-11-20 21:22:00,,0828.0,5.00,0.00,27.3,26.2,00.0,36.1,29.2,07.7,0000.0,0009.06,0006.77,0006.58
2022-11-20 21:23:00,,0828.0,5.00,0.00,27.4,26.2,00.0,36.1,29.2,08.2,0000.0,0009.06,0006.76,0006.58
2022-11-20 21:24:00,,0828.0,5.00,0.00,27.4,26.3,00.0,36.1,29.2,08.3,0000.0,0009.03,0006.77,0006.60
2022-11-20 21:25:00,,0828.0,5.00,0.00,27.4,26.3,00.0,36.1,29.2,08.6,0000.0,0009.12,0006.80,0006.64
2022-11-20 21:26:00,,0828.0,5.00,0.00,27.4,26.3,00.0,36.1,29.2,08.6,0000.0,0009.25,0006.87,0006.70
2022-11-20 21:27:00,,0827.9,5.00,0.00,27.4,26.3,00.0,36.2,29.3,08.6,0000.0,0009.36,0006.96,0006.76
2022-11-20 21:28:00,,0828.0,5.00,0.00,27.4,26.3,00.0,36.2,29.3,08.4,0000.0,0009.48,0007.06,0006.85
2022-11-20 21:29:00,,0828.0,5.00,0.00,27.4,26.3,00.0,36.2,29.3,08.2,0000.0,0009.52,0007.12,0006.92
2022-11-20 21:30:00,,0827.9,5.00,0.00,27.4,26.3,00.0,36.2,29.3,08.7,0000.0,0009.66,0007.26,0007.05
2022-11-20 21:31:00,,0827.9,5.00,0.00,27.5,26.3,00.0,36.2,29.3,08.9,0000.0,0010.01,0007.44,0007.19
2022-11-20 21:32:00,,0827.9,5.00,0.00,27.5,26.4,00.0,36.2,29.3,08.9,0000.0,0010.33,0007.60,0007.34
2022-11-20 21:33:00,,0827.9,5.00,0.00,27.5,26.4,00.0,36.2,29.3,08.8,0000.0,0010.57,0007.79,0007.50
2022-11-20 21:34:00,,0827.9,5.00,0.00,27.5,26.4,00.0,36.3,29.4,08.8,0000.0,0010.75,0007.93,0007.61
2022-11-20 21:35:00,,0827.9,5.00,0.00,27.5,26.4,00.0,36.3,29.4,09.0,0000.0,0010.89,0008.04,0007.69
2022-11-20 21:36:00,,0828.0,5.00,0.00,27.5,26.4,00.0,36.3,29.4,08.9,0000.0,0010.90,0008.11,0007.74
2022-11-20 21:37:00,,0828.0,5.01,0.00,27.5,26.4,00.0,36.3,29.4,08.5,0000.0,0010.97,0008.16,0007.78
2022-11-20 21:38:00,,0828.0,5.00,0.00,27.6,26.4,00.0,36.3,29.4,08.5,0000.0,0011.27,0008.24,0007.84
2022-11-20 21:39:00,,0828.0,5.00,0.00,27.6,26.4,00.0,36.3,29.5,08.5,0000.6,0011.55,0008.30,0007.87
2022-11-20 21:40:00,,0828.0,5.00,0.00,27.6,26.5,00.0,36.3,29.4,08.8,0000.5,0011.78,0008.40,0007.92
2022-11-20 21:41:00,,0828.0,5.00,0.00,27.6,26.5,00.0,36.4,29.5,08.7,0000.0,0011.86,0008.42,0007.91
2022-11-20 21:42:00,,0828.0,4.99,0.00,27.6,26.5,00.0,36.4,29.5,08.7,0000.0,0011.58,0008.33,0007.85
2022-11-20 21:43:00,,0828.0,5.00,0.00,27.6,26.5,00.0,36.4,29.5,08.8,0000.0,0011.32,0008.28,0007.82
2022-11-20 21:44:00,,0828.0,5.00,0.00,27.6,26.5,00.0,36.4,29.5,08.6,0000.0,0011.19,0008.22,0007.78
2022-11-20 21:45:00,,0828.0,5.00,0.00,27.6,26.5,00.0,36.4,29.5,08.5,0000.0,0011.21,0008.20,0007.75
2022-11-20 21:46:00,,0827.9,5.02,0.00,27.7,26.5,00.0,36.4,29.5,08.3,0000.0,0011.17,0008.16,0007.72
2022-11-20 21:47:00,,0827.9,5.00,0.00,27.7,26.5,00.0,36.4,29.5,08.4,0000.0,0011.46,0008.12,0007.68
2022-11-20 21:48:00,,0828.0,5.00,0.00,27.7,26.5,00.0,36.4,29.5,08.3,0000.0,0011.35,0008.05,0007.66
2022-11-20 21:49:00,,0828.0,4.99,0.00,27.7,26.5,00.0,36.5,29.5,08.4,0000.0,0011.07,0008.00,0007.62
2022-11-20 21:50:00,,0827.9,5.00,0.00,27.7,26.6,00.0,36.5,29.5,08.4,0000.0,0010.80,0007.95,0007.61
2022-11-20 21:51:00,,0828.0,5.00,0.00,27.7,26.6,00.0,36.5,29.6,08.5,0000.0,0010.66,0007.90,0007.61
2022-11-20 21:52:00,,0828.0,5.00,0.00,27.7,26.6,00.0,36.5,29.6,08.5,0000.0,0010.63,0007.90,0007.61
2022-11-20 21:53:00,,0828.0,5.00,0.00,27.7,26.6,00.0,36.5,29.6,08.9,0000.0,0010.73,0007.92,0007.61
2022-11-20 21:54:00,,0828.0,5.00,0.00,27.7,26.6,00.0,36.5,29.6,08.9,0000.0,0010.90,0007.94,0007.59
2022-11-20 21:55:00,,0827.9,5.00,0.00,27.8,26.6,00.0,36.5,29.6,08.8,0000.0,0011.32,0007.91,0007.57
2022-11-20 21:56:00,,0828.0,5.00,0.00,27.8,26.6,00.0,36.5,29.6,08.4,0000.0,0011.67,0007.88,0007.56
2022-11-20 21:57:00,,0828.0,5.00,0.00,27.8,26.6,00.0,36.6,29.6,08.4,0000.0,0011.62,0007.88,0007.56
2022-11-20 21:58:00,,0828.0,5.00,0.00,27.8,26.6,00.0,36.6,29.7,08.4,0000.0,0011.32,0007.90,0007.57
2022-11-20 21:59:00,,0827.9,5.00,0.00,27.8,26.6,00.0,36.6,29.7,08.4,0000.0,0011.47,0007.94,0007.56
